STARLINK-2059 (47668 NORAD) Tracking and Keplerian Element Data

This shows tracking and keplerian element data for the satellite.

Feedback or suggestion? Click here.




ElementValue
Catalog47668
NameSTARLINK-2059
Epoch Orbit177
Epoch Day101.91668981
Epoch Year2021
RAAN188.9584
Inclination53.0472
Eccentricity0.0002057
Argument of Perigee35.293
Mean Anonmoly22.7025
Mean Motion15.7323768
Decay Rate-9.723E-05
L11 47668U 21012BA 21101.91668981 -.00009723 00000-0 -64799-4 0 9992
L22 47668 53.0472 188.9584 0002057 35.2930 22.7025 15.73237680 1778

Live tracking and technical data element details for STARLINK-2059 (NORAD 47668). STARLINK-2059 can be tracked NOW for your location showing map with azimuth and elevation plus other details from your city location.

Track the satellite on the map from your city or location and see movement details for azimuth, elevation, latitude, longitude, range, height, and movement on the map or in text.







IsCatalogInMostPopularTable: catalog: 47668, numindb: 15
Update: records affected: 1



GetName: 47668 STARLINK-2059

Hit Count: updated at: Tue, 13 Apr 2021 05:33:16 GMT